Location: Newark
(25.7507°S, 31.4676°E)
Time: 06:49:11
(UTC+00:00)

Hubble Space Telescope - Pass Details

Date: 27 January 2020
Orbit: 536 x 540 km, 28.5° (Epoch: 20 February)

Event Time Altitude Azimuth Distance (km) Brightness Sun altitude
Rises 19:45:44 0° 260° (W) 2,692 5.0 -34.1°
Reaches altitude 10° 19:48:02 10° 256° (WSW) 1,799 4.0 -34.4°
Enters shadow 19:48:17 12° 255° (WSW) 1,700 3.9 -34.4°
